(207784) = 2007 TG179 = 2007 TO117

Discovered at Kitt Peak on 2007-10-09 by Spacewatch.

Orbit

Orbit type: Main Belt

Note: WebGL enabled browser required.

epoch2023-09-13.0
epoch JD2460200.5
perihelion date2018-12-16.74471
perihelion JD2458469.24471
argument of perihelion (°)320.37188
ascending node (°)59.03950
inclination (°)11.47362
eccentricity0.0416361
perihelion distance (AU)3.0549577
Tisserand w.r.t. Jupiter3.2
ΔV w.r.t. Earth (km/sec)11.4
semimajor axis (AU)3.1876801
mean anomaly (°)299.81466
mean daily motion (°/day)0.17317760
aphelion distance (AU)3.320
period (years)5.69
P-vector [x]0.93222707
P-vector [y]0.36140535
P-vector [z]0.01840825
Q-vector [x]-0.31914991
Q-vector [y]0.79712292
Q-vector [z]0.51258013
absolute magnitude15.23
phase slope0.15
uncertainty0
referenceMPEC 2023-R158
observations used395
oppositions16
arc length (days)8008
first opposition used2001
last opposition used2023
residual rms (arc-secs)0.74
perturbers coarse indicatorM-v
perturbers precise indicator003Ek
first observation date used2001-10-08.0
last observation date used2023-09-11.0
computer nameMPCLINUX
JD of orbit computation2456670.758152
perihelion JD uncertainty (days)9.3997E-04
argument of perihelion uncertainty (°)1.7295E-04
ascending node uncertainty (°)2.9477E-05
inclination uncertainty (°)1.1145E-05
eccentricity uncertainty 1.0596E-07
perihelion distance uncertainty (AU)3.1655E-07
Minimum Orbit Intersection Distances (in AU)
for orbit epoch: 2460200.5, reference: E2023-S29
Mercury2.696
Venus2.33261
Earth2.06824
Mars1.57542
Jupiter1.91941
Saturn5.94629
Uranus15.2047
Neptune26.7848

Observations

411 total observations over interval: 2001 10 08.41926 – 2023 09 16.278613
These data are available for download (format description).

Date (UT) J2000 RA J2000 Dec Magn Location Ref
2001 10 08.41926 01 17 47.52 -04 30 59.2 19.5 R 644 – Palomar Mountain/NEAT MPS 234338
2001 10 08.44037 01 17 46.52 -04 31 02.2 19.8 R 644 – Palomar Mountain/NEAT MPS 234338
2001 10 16.29576 01 11 25.49 -04 47 18.7 19.7 R 644 – Palomar Mountain/NEAT MPS 234338
2001 10 16.31682 01 11 24.49 -04 47 20.8 19.9 R 644 – Palomar Mountain/NEAT MPS 234338
2001 10 16.33833 01 11 23.39 -04 47 23.1   644 – Palomar Mountain/NEAT MPS 234338
2001 10 21.33244 01 07 26.27 -04 54 01.7 20.0 R 644 – Palomar Mountain/NEAT MPS 234338
2001 10 21.35269 01 07 25.24 -04 54 03.5 20.3 R 644 – Palomar Mountain/NEAT MPS 234338
2001 10 21.37323 01 07 24.27 -04 54 04.3 20.3 R 644 – Palomar Mountain/NEAT MPS 234338
2001 10 24.28997 01 05 10.79 -04 56 25.8 19.9 R 644 – Palomar Mountain/NEAT MPS 234338
2001 10 24.31141 01 05 09.79 -04 56 26.5 20.3 R 644 – Palomar Mountain/NEAT MPS 234338
2001 10 24.33270 01 05 08.83 -04 56 27.8 20.1 R 644 – Palomar Mountain/NEAT MPS 234338
2005 05 13.33766 15 56 52.70 -20 11 41.0 19.2 R G96 – Mt. Lemmon Survey MPS 239526
2005 05 13.34568 15 56 52.27 -20 11 41.2 19.6 R G96 – Mt. Lemmon Survey MPS 239526
2005 05 13.35370 15 56 51.88 -20 11 41.1 19.2 R G96 – Mt. Lemmon Survey MPS 239526
2005 05 13.36169 15 56 51.44 -20 11 41.5 17.6 R G96 – Mt. Lemmon Survey MPS 239526
2005 06 14.27072 15 31 03.72 -20 19 54.5 19.7 V G96 – Mt. Lemmon Survey MPS 239526
2005 06 14.27873 15 31 03.39 -20 19 54.4 20.0 V G96 – Mt. Lemmon Survey MPS 239526
2005 06 14.28676 15 31 03.07 -20 19 54.7 20.1 V G96 – Mt. Lemmon Survey MPS 239526
2005 06 14.29478 15 31 02.74 -20 19 55.0 20.0 V G96 – Mt. Lemmon Survey MPS 239526
2006 07 18.59337 21 52 58.11 -29 35 04.8 19.4 V E12 – Siding Spring Survey MPS 239526
2006 07 18.60522 21 52 57.68 -29 35 10.5 19.3 V E12 – Siding Spring Survey MPS 239526
2006 07 18.61723 21 52 57.25 -29 35 15.2 20.1 V E12 – Siding Spring Survey MPS 239527
2006 07 18.62985 21 52 56.78 -29 35 18.4 19.8 V E12 – Siding Spring Survey MPS 239527
2006 08 12.32941 21 34 53.35 -31 48 59.4 19.8 R 644 – Palomar Mountain/NEAT MPS 239527
2006 08 12.35096 21 34 52.21 -31 49 04.5 20.0 R 644 – Palomar Mountain/NEAT MPS 239527
2006 08 12.37193 21 34 51.12 -31 49 09.3 19.7 R 644 – Palomar Mountain/NEAT MPS 239527
2007 10 07.34198 02 56 27.38 +09 42 50.4 19.5 V 703 – Catalina Sky Survey MPS 222623
2007 10 07.34795 02 56 27.09 +09 42 48.4 20.1 V 703 – Catalina Sky Survey MPS 222623
2007 10 07.35396 02 56 26.88 +09 42 48.9 20.4 V 703 – Catalina Sky Survey MPS 222623
2007 10 07.35995 02 56 26.62 +09 42 49.7 19.7 V 703 – Catalina Sky Survey MPS 222623
2007 10 09.32275 02 55 17.47 +09 40 55.8 19.9 V 691 – Steward Observatory, Kitt Peak-Spacewatch MPS 220836
2007 10 09.34038 02 55 16.82 +09 40 54.7 20.3 V 691 – Steward Observatory, Kitt Peak-Spacewatch MPS 220836
2007 10 09.35801 02 55 16.15 +09 40 53.6 20.5 V 691 – Steward Observatory, Kitt Peak-Spacewatch MPS 220836
2007 10 10.38774 02 54 38.01 +09 39 51.8 19.5 V G96 – Mt. Lemmon Survey MPS 220836
2007 10 10.39444 02 54 37.76 +09 39 51.6 19.7 V G96 – Mt. Lemmon Survey MPS 220836
2007 10 10.40119 02 54 37.47 +09 39 51.1 19.5 V G96 – Mt. Lemmon Survey MPS 220836
2007 10 10.40787 02 54 37.22 +09 39 50.5 19.4 V G96 – Mt. Lemmon Survey MPS 220836
2007 10 13.32050 02 52 43.41 +09 36 47.9 20.2 V 691 – Steward Observatory, Kitt Peak-Spacewatch MPS 229066
2007 10 13.33815 02 52 42.62 +09 36 46.7 20.1 V 691 – Steward Observatory, Kitt Peak-Spacewatch MPS 229066
2007 10 13.35581 02 52 41.89 +09 36 45.9 20.0 V 691 – Steward Observatory, Kitt Peak-Spacewatch MPS 229066
2007 11 04.27206 02 35 09.93 +09 13 22.5 19.9   704 – Lincoln Laboratory ETS, New Mexico MPS 240821
2007 11 04.28411 02 35 09.35 +09 13 21.6 20.2   704 – Lincoln Laboratory ETS, New Mexico MPS 240821
2007 11 04.29624 02 35 08.63 +09 13 21.5 20.2   704 – Lincoln Laboratory ETS, New Mexico MPS 240821
2007 11 04.30830 02 35 07.97 +09 13 20.9 20.5   704 – Lincoln Laboratory ETS, New Mexico MPS 240821
2007 11 07.31586 02 32 33.21 +09 11 01.5 19.4 V 703 – Catalina Sky Survey MPS 226968
2007 11 07.33007 02 32 32.46 +09 11 01.1 19.6 V 703 – Catalina Sky Survey MPS 226968
2007 11 07.34431 02 32 31.74 +09 10 59.5 19.4 V 703 – Catalina Sky Survey MPS 226968
2007 11 07.35855 02 32 31.02 +09 11 00.1 19.6 V 703 – Catalina Sky Survey MPS 226968
2007 11 12.21073 02 28 26.10 +09 08 17.8 20.2   704 – Lincoln Laboratory ETS, New Mexico MPS 240821
2007 11 12.22301 02 28 25.47 +09 08 17.1 20.0   704 – Lincoln Laboratory ETS, New Mexico MPS 240821
2007 11 12.23520 02 28 24.79 +09 08 16.8 20.3   704 – Lincoln Laboratory ETS, New Mexico MPS 240821
2007 11 12.24722 02 28 24.20 +09 08 17.3 20.2   704 – Lincoln Laboratory ETS, New Mexico MPS 240821
2007 11 13.23272 02 27 35.56 +09 07 54.3 19.8 V G96 – Mt. Lemmon Survey MPS 226968
2007 11 13.24013 02 27 35.20 +09 07 54.4 19.7 V G96 – Mt. Lemmon Survey MPS 226968
2007 11 13.24752 02 27 34.84 +09 07 52.7 20.2 V G96 – Mt. Lemmon Survey MPS 226968
2007 11 13.25492 02 27 34.45 +09 07 54.1 19.7 V G96 – Mt. Lemmon Survey MPS 226968
2008 01 12.14929 02 10 55.09 +11 28 51.8 20.7 V G96 – Mt. Lemmon Survey MPS 234338
2008 01 12.15540 02 10 55.12 +11 28 53.9 21.2 V G96 – Mt. Lemmon Survey MPS 234338
2008 01 12.16152 02 10 55.27 +11 28 55.4 20.8 V G96 – Mt. Lemmon Survey MPS 234338
2008 01 12.16763 02 10 55.41 +11 28 57.5 20.6 V G96 – Mt. Lemmon Survey MPS 234338
2008 12 31.31333 08 25 33.06 +32 56 10.1 19.8 V 703 – Catalina Sky Survey MPS 270199
2008 12 31.32115 08 25 32.70 +32 56 13.1 19.9 V 703 – Catalina Sky Survey MPS 270199
2008 12 31.32902 08 25 32.34 +32 56 16.8 19.8 V 703 – Catalina Sky Survey MPS 270199
2008 12 31.33693 08 25 31.98 +32 56 19.1 19.6 V 703 – Catalina Sky Survey MPS 270199
2009 01 15.26948 08 12 54.68 +34 14 30.3 18.9   704 – Lincoln Laboratory ETS, New Mexico MPS 272707
2009 01 15.28192 08 12 53.98 +34 14 34.6 19.5   704 – Lincoln Laboratory ETS, New Mexico MPS 272707
2009 01 15.29437 08 12 53.25 +34 14 37.1 19.2   704 – Lincoln Laboratory ETS, New Mexico MPS 272707
2009 01 15.30682 08 12 52.54 +34 14 40.8 19.4   704 – Lincoln Laboratory ETS, New Mexico MPS 272707
2009 01 15.31924 08 12 51.77 +34 14 44.1 19.5   704 – Lincoln Laboratory ETS, New Mexico MPS 272707
2009 01 20.26899 08 08 14.89 +34 35 13.0 19.5 V 703 – Catalina Sky Survey MPS 272707
2009 01 20.27545 08 08 14.49 +34 35 15.2 19.4 V 703 – Catalina Sky Survey MPS 272707
2009 01 20.28184 08 08 14.20 +34 35 16.7 19.6 V 703 – Catalina Sky Survey MPS 272707
2009 01 20.28838 08 08 13.77 +34 35 18.0 19.2 V 703 – Catalina Sky Survey MPS 272707
2009 01 29.25551 07 59 56.00 +35 03 17.2 19.7 V 703 – Catalina Sky Survey MPS 272707
2009 01 29.26039 07 59 55.60 +35 03 18.1 19.8 V 703 – Catalina Sky Survey MPS 272707
2009 01 29.26529 07 59 55.32 +35 03 18.6 19.7 V 703 – Catalina Sky Survey MPS 272707
2009 01 29.27018 07 59 55.14 +35 03 19.1 19.7 V 703 – Catalina Sky Survey MPS 272707
2009 02 02.23107 07 56 26.91 +35 11 38.1 19.9   704 – Lincoln Laboratory ETS, New Mexico MPS 272707
2009 02 02.24324 07 56 26.23 +35 11 39.8 19.8   704 – Lincoln Laboratory ETS, New Mexico MPS 272707
2009 02 02.25559 07 56 25.46 +35 11 40.0 19.9   704 – Lincoln Laboratory ETS, New Mexico MPS 272707
2009 02 02.26801 07 56 24.90 +35 11 41.5 19.9   704 – Lincoln Laboratory ETS, New Mexico MPS 272707
2010 01 08.872662 13 11 26.021 +04 11 01.21   C51 – WISE MPS 926702
2010 01 09.004968 13 11 30.61 +04 10 53.2   C51 – WISE MPS 330629
2010 01 09.269576 13 11 39.77 +04 10 31.6   C51 – WISE MPS 330629
2010 01 09.335793 13 11 42.04 +04 10 29.1   C51 – WISE MPS 330629
2010 01 09.46810 13 11 46.79 +04 10 15.9   C51 – WISE MPS 330629
2012 08 19.62093 23 27 21.24 -21 32 44.5 19.6 V E12 – Siding Spring Survey MPS 430869
2012 08 19.63235 23 27 20.80 -21 32 47.2 19.5 V E12 – Siding Spring Survey MPS 430869
2012 08 19.64373 23 27 20.34 -21 32 51.9 19.6 V E12 – Siding Spring Survey MPS 430869
2012 08 19.65510 23 27 19.90 -21 32 55.4 19.7 V E12 – Siding Spring Survey MPS 430869
2012 11 01.289128 22 47 14.219 -21 45 04.93 20.6 r F51 – Pan-STARRS 1, Haleakala MPS 441262
2012 11 01.300768 22 47 14.224 -21 45 00.74 20.2 r F51 – Pan-STARRS 1, Haleakala MPS 441262
